Theta_e
318 313 311 315 319 318 315 314 312 316 324 322 323 323 325 333 331 328 332 330 331 332 339 342 342 342 344 346 348 349 351 353 351 345 342 345 345 350 350 351 355 358 363 360
313 310 315 317 316 314 315 314 313 315 322 322 322 322 327 331 331 331 331 332 332 332 335 341 342 342 343 346 348 351 351 353 352 348 351 349 349 349 351 352 356 358 359 360
309 313 316 314 313 312 314 312 313 310 314 320 320 318 323 328 332 333 332 334 334 333 336 338 340 343 343 346 348 349 353 354 354 358 354 355 358 347 352 350 352 357 360 359
312 315 313 311 311 313 310 315 312 311 311 311 321 308 314 325 327 330 332 333 334 335 335 336 338 341 342 346 349 351 353 355 354 357 359 357 348 344 343 349 350 356 359 359
311 311 310 310 310 314 312 315 313 313 313 313 313 312 312 322 321 326 331 334 335 335 334 335 339 341 343 345 348 349 353 356 358 359 359 353 353 351 346 349 359 364 364 360
312 317 314 312 314 315 316 312 315 315 313 305 311 311 310 316 319 324 329 333 335 336 334 337 341 343 343 345 347 349 351 355 358 358 357 357 357 354 347 353 351 346 352 354
310 309 313 312 309 315 315 309 304 304 304 302 314 310 312 317 321 323 327 330 334 337 335 336 338 340 343 344 345 348 352 354 356 355 355 355 356 357 356 354 348 353 346 347
305 303 309 312 310 310 310 310 304 298 299 303 312 306 312 320 322 326 327 328 332 336 337 337 339 341 343 344 346 348 354 355 354 354 358 361 357 352 351 353 350 347 349 349
306 305 312 312 312 313 311 308 313 306 307 303 306 311 317 321 321 325 326 327 329 335 336 337 339 342 344 344 346 348 354 357 355 354 358 361 361 357 354 358 358 354 359 353
311 305 310 311 312 313 312 315 306 307 299 298 303 307 309 316 319 324 326 327 330 334 336 337 339 343 344 345 346 349 351 354 355 354 355 355 357 359 359 358 358 360 360 361
313 310 309 312 309 307 309 308 310 309 307 301 299 305 313 318 321 325 327 330 332 332 334 337 339 343 344 346 345 347 349 354 352 354 357 358 356 357 358 355 358 359 360 362
315 311 306 308 314 314 312 310 310 304 304 306 306 306 319 321 324 326 329 332 332 331 334 338 339 342 344 347 348 348 347 351 349 354 359 356 357 359 355 355 356 358 360 365
315 309 304 307 311 313 309 311 312 311 310 306 302 307 322 321 320 327 329 333 334 335 338 340 340 342 345 348 348 345 354 355 354 356 354 354 354 355 356 356 359 358 363 361
316 310 308 303 307 311 307 308 311 310 305 306 306 309 315 318 320 327 330 333 334 338 340 341 341 343 346 350 349 352 353 355 354 356 356 360 358 359 356 359 363 361 366 363
314 306 309 310 311 311 310 309 309 308 310 306 309 310 315 319 322 327 332 332 334 338 340 341 341 343 346 349 351 352 352 354 353 356 356 361 365 363 362 364 364 364 362 363
317 309 310 308 311 311 308 311 310 310 311 310 311 310 319 322 326 329 333 331 333 337 338 342 343 346 348 349 351 352 354 352 357 356 358 360 363 363 363 362 361 361 362 361
314 312 309 304 310 309 305 310 310 311 313 312 309 315 320 322 323 329 333 332 334 336 338 340 344 347 348 349 352 352 354 355 356 356 358 359 362 359 360 360 360 361 359 355
311 312 311 305 307 298 310 316 315 312 312 315 315 316 319 323 326 332 336 333 334 337 338 340 343 347 349 351 352 356 355 357 357 356 356 358 358 358 359 358 358 358 357 356
314 311 307 303 303 308 310 313 313 313 312 316 316 317 319 319 326 330 336 334 336 338 340 341 341 343 345 347 353 355 355 356 356 355 355 357 357 359 359 356 356 358 357 355
312 312 308 307 300 299 310 315 319 319 308 319 320 318 319 324 315 323 336 334 336 338 341 339 340 342 344 349 353 355 355 356 356 357 358 359 359 358 356 356 357 357 355 354
305 307 303 305 303 307 315 317 319 308 311 321 322 323 323 322 325 333 336 335 337 339 341 342 344 344 348 351 353 352 354 353 355 356 356 356 355 354 352 352 352 351 351 352
305 302 303 307 302 301 317 316 312 320 326 325 325 326 328 331 330 335 334 336 337 340 341 344 344 347 349 352 352 349 348 351 354 353 353 353 354 349 349 352 352 352 353 350
304 306 301 307 308 317 319 320 327 324 326 327 327 326 327 327 331 333 330 337 338 341 342 344 345 347 351 353 351 345 355 354 352 352 351 352 354 352 352 351 354 346 350 344
313 317 312 312 314 318 321 324 327 326 325 328 327 328 329 327 333 333 337 338 339 342 344 344 346 347 350 351 350 352 354 353 350 349 350 351 350 350 351 347 344 342 337 336
313 315 313 312 316 316 320 323 324 324 323 324 325 327 328 329 330 336 338 340 343 345 345 348 348 349 349 350 349 347 350 350 345 346 345 345 344 348 344 348 340 338 343 335
311 311 310 309 317 315 313 320 325 323 322 323 321 325 330 331 331 336 340 343 345 346 348 350 352 350 346 346 344 346 347 346 344 342 340 339 339 338 337 336 337 315 316 314
Wind_Speed
17 15 15 16 14 9 8 11 3 5 5 6 9 9 11 16 17 13 16 17 17 16 14 12 12 11 14 13 12 11 9 10 9 6 6 6 8 5 4 6 7 8 3 4
16 16 17 16 9 8 12 13 8 4 5 8 12 11 11 16 17 19 21 19 17 17 12 15 14 15 14 14 13 13 12 12 9 10 7 7 5 7 8 8 8 5 4 3
18 14 13 18 8 14 14 14 7 6 9 12 12 17 15 15 17 18 18 17 17 17 21 19 17 17 15 16 15 14 14 14 11 8 7 6 5 6 2 6 8 8 9 7
16 15 15 11 12 16 17 6 5 11 13 2 21 8 14 15 17 19 21 19 19 18 17 18 17 17 16 16 15 16 15 15 12 10 7 8 7 6 5 7 8 6 8 7
14 14 18 15 15 17 15 5 8 11 14 17 13 9 5 9 12 14 20 23 22 19 16 18 17 17 17 16 16 16 16 14 13 11 10 8 10 3 6 5 11 5 6 4
18 10 10 15 16 16 7 8 12 14 13 12 10 10 13 11 3 9 15 18 22 23 18 20 18 18 16 17 16 17 16 15 14 12 12 12 9 7 5 6 8 8 9 9
16 19 16 11 16 18 16 15 14 12 11 9 9 4 3 7 10 5 9 13 18 22 26 22 19 17 17 19 17 17 17 15 15 15 14 12 10 7 6 7 6 6 8 8
13 17 22 16 20 16 13 19 15 8 9 4 11 6 4 6 5 5 5 5 11 19 20 22 23 20 18 14 17 17 18 16 16 15 13 11 10 8 7 8 7 8 4 6
13 11 6 16 18 20 18 17 19 19 15 12 9 7 7 9 3 11 7 5 7 16 18 20 22 18 19 18 18 16 16 15 15 15 12 11 11 11 7 7 9 7 7 3
18 12 5 11 16 20 22 13 12 12 12 12 9 10 10 7 2 10 10 9 7 13 18 20 19 21 20 19 18 17 17 16 16 15 13 11 12 12 10 6 7 7 4 5
17 17 15 10 15 18 17 19 15 19 13 9 11 8 4 8 2 10 11 9 9 10 15 17 18 21 20 20 20 17 17 16 7 15 13 11 13 13 12 11 11 10 9 7
14 16 16 21 14 18 22 22 21 13 15 11 14 6 14 10 4 5 9 8 5 5 13 15 18 20 18 15 14 15 12 16 16 14 12 12 13 10 14 13 12 11 10 10
13 14 16 20 16 14 20 24 22 21 20 17 12 2 10 7 4 6 8 9 7 7 11 13 16 17 17 16 16 17 16 17 14 13 13 15 15 14 13 12 11 11 10 10
11 18 14 16 17 14 22 19 19 21 15 15 14 8 4 5 10 11 7 11 11 10 12 13 13 14 14 14 14 13 9 10 11 10 11 13 12 13 14 13 11 11 9 10
17 20 21 23 24 21 18 20 23 23 20 18 14 13 11 20 13 14 11 12 12 13 13 13 14 14 14 14 14 14 14 11 11 11 8 10 10 10 9 9 8 7 10 11
12 17 19 23 26 20 20 21 26 25 22 17 18 11 3 7 11 14 14 14 14 14 14 13 13 15 15 15 15 15 15 16 13 12 11 9 9 9 10 10 10 9 9 11
16 16 18 21 22 22 22 22 17 18 16 15 17 14 18 16 11 15 16 16 15 15 14 14 13 13 13 15 14 14 13 12 12 12 11 10 9 11 9 9 9 10 9 5
18 18 15 17 18 26 19 20 20 21 19 17 18 14 18 3 10 14 17 17 17 16 15 14 13 13 13 14 14 12 13 11 11 12 11 10 10 10 9 9 9 9 9 11
20 13 15 17 17 20 23 24 9 17 13 12 15 16 13 7 16 16 18 19 17 18 15 14 13 12 12 13 12 11 11 11 11 11 11 10 10 8 5 6 7 7 6 7
24 17 13 17 20 28 18 24 20 21 10 6 14 14 17 17 8 9 20 21 20 19 16 15 15 13 13 13 13 12 11 10 10 9 9 8 8 9 9 8 8 7 8 8
16 18 17 19 15 17 15 3 10 18 8 8 4 6 11 8 1 12 22 24 22 19 19 18 16 15 15 15 13 12 11 10 8 8 7 7 7 6 6 5 4 5 6 7
13 5 7 18 16 20 17 10 17 3 11 11 13 9 6 9 4 10 8 23 24 22 21 20 16 15 15 14 12 11 10 9 8 8 9 9 8 7 8 6 6 7 6 7
15 10 6 8 9 12 5 11 4 12 14 7 11 9 5 6 9 10 19 20 21 21 20 18 16 16 14 13 10 10 8 9 9 9 8 8 8 7 5 5 6 7 10 10
4 9 7 15 7 12 21 3 10 11 9 7 8 8 10 8 10 8 12 18 18 18 18 17 18 17 14 11 10 9 8 7 7 7 7 7 7 7 7 7 8 9 7 6
8 3 11 14 10 4 13 11 12 8 8 12 7 10 7 8 7 9 10 16 17 17 17 17 16 15 15 12 10 8 7 6 6 5 6 6 7 7 7 8 7 7 5 4
12 10 7 10 3 6 3 21 11 5 9 9 11 9 4 6 2 10 7 14 16 17 16 16 16 16 15 13 11 9 8 6 5 5 5 5 5 5 5 6 5 7 7 6
Wind_Direction
210 238 238 244 236 284 331 281 298 75 92 254 239 248 198 170 191 203 204 217 217 193 151 182 168 166 155 154 159 157 136 145 162 130 165 178 188 136 207 212 170 205 243 185
242 224 251 255 272 293 268 272 261 157 193 244 256 248 217 177 202 195 204 212 216 186 176 169 204 169 165 162 165 169 157 164 191 163 172 167 192 205 205 187 181 212 221 214
236 233 212 247 241 236 243 263 280 317 284 238 263 250 223 200 190 196 201 210 208 213 181 186 185 175 177 167 171 175 171 171 210 180 140 190 215 6 187 180 175 198 214 198
244 244 246 250 248 244 252 16 356 287 270 229 240 275 246 164 192 197 192 203 216 202 190 192 181 182 181 170 173 169 180 179 193 201 169 208 213 189 177 180 180 179 212 212
241 234 241 234 247 223 257 67 274 280 276 276 259 277 152 243 185 196 203 196 206 207 205 183 181 186 185 172 173 168 177 181 191 197 188 195 233 333 206 193 130 172 177 229
256 255 243 253 226 252 230 268 245 246 254 265 200 239 109 239 203 179 185 199 198 188 206 211 182 176 185 173 177 167 175 182 190 186 194 209 229 227 307 199 158 196 190 187
220 241 237 219 250 224 223 236 238 225 231 320 167 246 173 186 202 180 190 187 196 187 185 205 181 190 184 175 182 168 172 184 191 185 192 203 227 225 196 267 219 238 212 196
224 213 212 219 234 217 219 237 255 274 270 347 353 268 125 320 59 158 187 200 185 188 190 194 184 191 171 179 183 181 167 184 188 191 194 188 209 218 236 209 261 231 255 237
278 238 231 208 212 246 209 215 260 288 284 263 275 202 91 44 321 161 169 143 197 180 188 192 178 162 177 193 184 188 166 183 191 196 192 189 199 233 214 212 233 226 264 252
259 264 192 196 213 219 245 252 225 232 264 278 256 224 97 161 210 160 166 168 169 184 188 184 177 170 188 187 189 189 174 185 192 200 190 207 193 211 234 231 235 266 279 280
237 258 269 191 207 227 207 240 254 276 267 303 242 97 102 310 57 164 175 130 169 187 188 186 182 173 188 176 195 181 180 181 194 201 187 213 207 203 209 222 212 222 238 244
231 241 245 255 216 219 244 217 232 241 235 265 302 308 157 244 155 180 129 122 156 180 180 188 185 174 174 178 178 186 166 186 195 205 193 199 218 206 201 214 225 212 221 194
279 240 252 255 237 210 217 238 230 229 246 262 257 119 162 158 191 173 146 137 135 167 173 181 183 175 176 173 178 191 185 193 200 196 194 211 207 213 224 216 214 230 220 218
301 272 242 253 252 222 202 226 247 257 254 252 236 170 146 249 192 157 167 144 155 168 161 177 179 172 177 180 176 184 170 180 191 194 196 210 211 210 219 218 228 229 213 253
253 257 266 264 266 264 260 201 224 237 246 265 260 240 190 189 183 160 160 160 159 158 169 166 182 167 180 181 173 185 183 182 202 188 215 221 205 218 229 239 238 257 222 226
276 276 263 258 265 263 256 259 209 221 232 245 259 228 198 352 129 151 162 165 165 165 165 168 171 166 179 177 183 183 183 184 197 191 195 205 207 208 218 222 225 235 231 237
290 283 267 247 252 256 255 244 241 254 246 233 252 260 155 172 175 164 167 172 166 166 161 166 159 167 180 174 182 183 188 183 189 191 198 194 195 207 212 218 220 227 236 255
247 255 264 262 251 249 249 270 244 246 246 236 246 266 328 156 175 163 171 175 165 164 162 160 164 163 171 170 174 176 180 183 183 193 191 188 194 206 213 228 234 232 235 239
237 243 266 249 248 246 254 241 233 248 254 272 254 246 151 43 252 157 174 174 166 159 158 163 154 159 167 145 146 159 164 173 182 192 202 205 211 213 209 221 233 249 250 249
243 218 232 261 237 247 234 243 244 226 241 331 300 249 255 165 200 182 173 170 163 159 158 148 147 141 135 142 149 154 158 167 179 185 191 194 194 202 202 217 213 217 229 242
239 213 186 238 254 257 287 177 113 264 193 85 32 338 287 212 262 327 174 167 158 157 155 146 149 147 149 150 151 155 156 167 173 169 171 172 180 197 208 218 246 250 257 279
272 134 240 218 219 244 33 2 261 13 101 101 73 39 7 339 303 171 140 149 154 160 150 157 154 146 149 149 152 152 163 154 156 162 169 178 183 216 173 202 219 230 253 265
265 152 183 292 220 256 307 211 326 62 316 73 78 53 2 8 274 241 187 170 161 160 156 163 149 151 149 152 150 155 142 158 170 175 184 192 206 213 246 247 244 246 234 240
302 324 259 156 229 320 318 216 54 35 343 56 42 53 351 11 302 231 176 168 155 158 167 159 151 157 150 152 156 153 154 171 185 196 212 219 223 218 240 244 241 242 270 288
295 352 262 258 212 3 317 46 40 32 27 15 351 65 6 339 340 293 200 170 161 162 171 155 161 154 153 155 153 143 150 172 195 206 222 232 235 194 248 239 269 283 330 336
268 271 264 269 353 107 340 320 337 38 21 28 1 340 358 307 23 284 248 173 163 169 168 157 157 149 148 149 147 141 149 164 183 182 202 238 247 260 248 269 259 64 67 134